Location: Olsztyn
(53.7767°N, 20.4765°E)
Time: 09:28:02
(UTC+02:00)

Vanguard 1 Rocket - Visible Passes

Search period start: 15 July 2024 00:00
Search period end: 25 July 2024 00:00
Orbit: 650 x 4219 km, 34.3° (Epoch: 14 July)

Date Brightness Start Highest point End Pass type
(mag) Time Alt. Az. Time Alt. Az. Time Alt. Az.
15 Jul 10.0 02:00:24 10° SW 02:06:15 17° SSW 02:14:13 10° SSE visible
15 Jul 9.2 22:26:03 10° SSW 22:29:48 16° SSE 22:34:46 10° SE visible
16 Jul 9.6 00:48:46 10° SW 00:59:58 12° SSE 01:01:29 10° SSE visible
16 Jul 9.4 23:37:48 10° SW 23:42:12 17° S 23:42:34 17° S visible
17 Jul10.302:12:58S02:12:58S01:59:38WSWvisible
17 Jul 9.2 22:27:22 10° SSW 22:30:39 15° S 22:33:30 12° SSE visible
18 Jul 9.5 23:39:37 10° SW 23:41:50 14° SSW 23:41:50 14° SSW visible
19 Jul 9.3 22:28:57 10° SSW 22:31:32 13° S 22:33:12 12° SSE visible
21 Jul 9.3 22:31:23 10° SSW 22:32:27 10° S 22:33:20 10° S visible
